Terminal Aerodrome Forecast
Issued by NWS

Home | Current Version | Previous Version | Text Only | Print | Product List | Glossary On
Versions: 1 2 3 4 5 6 7 8 9 10 11 12 13 14 15 16 17 18 19 20 21 22 23 24 25 26 27 28 29 30 31 32 33 34 35 36 37 38 39 40 41 42 43 44 45 46
000
FTUS43 KLOT 290542
TAFGYY
TAF
KGYY 290542Z 2906/3006 21012G20KT P6SM SCT025 OVC070
     FM291800 23014G23KT P6SM BKN050
     FM300000 24012KT P6SM VCTS BKN050CB
      TEMPO 3002/3006 3SM TSRA OVC035CB=

USA.gov is the U.S. government's official web portal to all federal, state and local government web resources and services.